Weather in Lobito

Angola     12°22′37″S   13°34′19″E
temp.,
°C
wind,
m/s
gust,
m/s
humid.,
%
clouds,
%
prec.,
mm/h
press.,
hPa
HPBL,
m
12 may, wed
wed1201:00+24ene11820 0.0 101368
04:00+23e11835 0.0 101279
07:00+24se11715 0.0 101374
10:00+29nw21524 0.0 1013549
13:00+28nw44595 0.0 1010484
16:00+28nw33655 0.0 1009428
19:00+25wnw01853 0.0 101114
22:00+24e11855 0.0 101349
13 may, thu
thu1301:00+23ese11845 0.0 101258
04:00+23se22761 0.0 101155
07:00+25se22665 0.0 101279
10:00+30wnw21475 0.0 1012605
13:00+29nw44565 0.0 1010415
16:00+28nw33630 0.0 1009376
19:00+25w11830 0.0 101111
22:00+24sse11840 0.0 101235
14 may, fri
fri1401:00+24se22800 0.0 101155
04:00+23sse22720 0.0 101156
07:00+24se22640 0.0 101260
10:00+30nw214551 0.0 1012606
13:00+28nw445431 0.0 1009396
16:00+29w335710 0.0 1009432
19:00+25w11755 0.0 101113
22:00+24ne11770 0.0 101216
15 may, sat
sat1501:00+23ese11740 0.0 101134
04:00+23se11680 0.0 101043
07:00+24sse22610 0.0 101168
10:00+30nw21430 0.0 1011532
13:00+29wnw54500 0.0 1009337
16:00+28nw22550 0.0 1008355
19:00+24nw01750 0.0 101012
22:00+24sse01760 0.0 101215
16 may, sun
sun1601:00+23se00730 0.0 101151
04:00+23se11710 0.0 101056
07:00+24sse22592 0.0 101166
10:00+30wnw21415 0.0 1012517
13:00+28nw44515 0.0 1009311
16:00+28nw32575 0.0 1009370
19:00+24ssw01790 0.0 101012
22:00+24se11730 0.0 101139